LNI681 WAGG-WARR

Flight info

Callsign LNI681
Flight time 0h 54m
Altitude 32000
Route DUMO1A DOSDO
Aircraft B739/M-SDE2E3FGHIRWXY/LB1

Departure

Time 2026-04-26 08:17
Airport Tjilik Riwut Airport (WAGG)

Arrival

Time 2026-04-26 09:12
Airport Juanda International Airport (WARR)
Time Latitude Longitude Altitude Speed Heading
2026-04-26 08:08 -2.23164 113.94762 51 ft 0 kts 70°
2026-04-26 08:10 -2.23168 113.94751 51 ft 2 kts 70°
2026-04-26 08:10 -2.23173 113.94737 51 ft 2 kts 70°
2026-04-26 08:10 -2.23176 113.94728 51 ft 2 kts 71°
2026-04-26 08:11 -2.23184 113.94716 51 ft 2 kts 35°
2026-04-26 08:11 -2.23197 113.94710 51 ft 2 kts
2026-04-26 08:11 -2.23211 113.94711 51 ft 0 kts 342°
2026-04-26 08:11 -2.23217 113.94714 51 ft 1 kts 338°
2026-04-26 08:12 -2.23218 113.94714 51 ft 0 kts 338°
2026-04-26 08:13 -2.23217 113.94714 51 ft 0 kts 338°
2026-04-26 08:13 -2.23201 113.94707 51 ft 6 kts 338°
2026-04-26 08:13 -2.23138 113.94679 51 ft 10 kts 305°
2026-04-26 08:14 -2.23149 113.94614 52 ft 9 kts 252°
2026-04-26 08:14 -2.23173 113.94542 53 ft 11 kts 263°
2026-04-26 08:14 -2.23111 113.94492 54 ft 15 kts 339°
2026-04-26 08:14 -2.22962 113.94436 54 ft 29 kts 339°
2026-04-26 08:15 -2.22723 113.94344 54 ft 43 kts 339°
2026-04-26 08:15 -2.22444 113.94236 56 ft 41 kts 339°
2026-04-26 08:15 -2.22180 113.94136 57 ft 39 kts 339°
2026-04-26 08:15 -2.21928 113.94039 55 ft 38 kts 339°
2026-04-26 08:16 -2.21743 113.93932 53 ft 19 kts 331°
2026-04-26 08:16 -2.21746 113.93969 53 ft 8 kts 157°
2026-04-26 08:16 -2.21806 113.93991 54 ft 12 kts 159°
2026-04-26 08:16 -2.22143 113.94120 57 ft 93 kts 159°
2026-04-26 08:17 -2.22996 113.94447 54 ft 166 kts 159°
2026-04-26 08:17 -2.24175 113.94878 642 ft 184 kts 159°
2026-04-26 08:17 -2.25336 113.95297 1656 ft 179 kts 158°
2026-04-26 08:17 -2.26518 113.95755 2192 ft 196 kts 156°
2026-04-26 08:18 -2.27848 113.96269 2707 ft 214 kts 157°
2026-04-26 08:18 -2.29295 113.96819 3275 ft 231 kts 157°
2026-04-26 08:18 -2.30857 113.97412 3850 ft 249 kts 158°
2026-04-26 08:18 -2.32513 113.98041 4467 ft 266 kts 158°
2026-04-26 08:19 -2.34300 113.98687 5135 ft 280 kts 162°
2026-04-26 08:19 -2.36229 113.99151 6002 ft 286 kts 167°
2026-04-26 08:19 -2.38189 113.99494 6916 ft 289 kts 169°
2026-04-26 08:19 -2.40172 113.99828 7839 ft 291 kts 169°
2026-04-26 08:20 -2.42165 114.00180 8726 ft 294 kts 168°
2026-04-26 08:20 -2.44168 114.00549 9602 ft 296 kts 168°
2026-04-26 08:20 -2.46204 114.00935 10407 ft 301 kts 166°
2026-04-26 08:20 -2.48237 114.01584 10924 ft 314 kts 152°
2026-04-26 08:21 -2.50009 114.02916 11388 ft 326 kts 133°
2026-04-26 08:21 -2.51537 114.04676 11840 ft 341 kts 128°
2026-04-26 08:21 -2.53049 114.06558 12230 ft 357 kts 128°
2026-04-26 08:21 -2.54649 114.08549 12648 ft 371 kts 128°
2026-04-26 08:22 -2.56290 114.10555 13239 ft 379 kts 129°
2026-04-26 08:22 -2.57991 114.12599 13944 ft 382 kts 129°
2026-04-26 08:22 -2.59712 114.14646 14595 ft 387 kts 129°
2026-04-26 08:22 -2.61558 114.16608 15234 ft 392 kts 136°
2026-04-26 08:23 -2.63763 114.18211 15822 ft 398 kts 150°
2026-04-26 08:23 -2.66386 114.19179 16446 ft 404 kts 166°
2026-04-26 08:23 -2.69190 114.19511 17054 ft 409 kts 177°
2026-04-26 08:23 -2.72040 114.19373 17638 ft 413 kts 187°
2026-04-26 08:24 -2.74881 114.18638 18206 ft 419 kts 198°
2026-04-26 08:24 -2.77591 114.17543 18734 ft 423 kts 203°
2026-04-26 08:24 -2.80289 114.16305 19244 ft 428 kts 204°
2026-04-26 08:24 -2.82990 114.15029 19764 ft 432 kts 204°
2026-04-26 08:25 -2.85739 114.13731 20283 ft 435 kts 204°
2026-04-26 08:25 -2.88497 114.12440 20782 ft 439 kts 204°
2026-04-26 08:25 -2.91289 114.11147 21236 ft 443 kts 204°
2026-04-26 08:25 -2.94118 114.09849 21715 ft 446 kts 204°
2026-04-26 08:26 -2.96947 114.08562 22169 ft 449 kts 203°
2026-04-26 08:26 -2.99806 114.07266 22613 ft 453 kts 203°
2026-04-26 08:26 -3.02697 114.05962 23077 ft 456 kts 203°
2026-04-26 08:26 -3.05610 114.04650 23505 ft 460 kts 203°
2026-04-26 08:27 -3.08536 114.03333 23967 ft 463 kts 202°
2026-04-26 08:27 -3.11529 114.01987 24443 ft 465 kts 202°
2026-04-26 08:27 -3.14471 114.00665 24844 ft 469 kts 202°
2026-04-26 08:27 -3.17451 113.99326 25271 ft 472 kts 202°
2026-04-26 08:28 -3.20502 113.97955 25698 ft 475 kts 202°
2026-04-26 08:28 -3.23537 113.96591 26107 ft 478 kts 202°
2026-04-26 08:28 -3.26568 113.95229 26525 ft 480 kts 202°
2026-04-26 08:28 -3.29641 113.93848 26939 ft 482 kts 202°
2026-04-26 08:29 -3.32725 113.92461 27347 ft 485 kts 202°
2026-04-26 08:29 -3.35775 113.91089 27760 ft 486 kts 202°
2026-04-26 08:29 -3.38892 113.89686 28268 ft 486 kts 201°
2026-04-26 08:29 -3.41973 113.88299 28757 ft 486 kts 201°
2026-04-26 08:30 -3.45063 113.86908 29377 ft 482 kts 201°
2026-04-26 08:30 -3.48130 113.85527 30087 ft 476 kts 202°
2026-04-26 08:30 -3.51116 113.84183 30661 ft 473 kts 202°
2026-04-26 08:30 -3.54125 113.82828 31147 ft 472 kts 202°
2026-04-26 08:31 -3.57125 113.81480 31583 ft 471 kts 202°
2026-04-26 08:31 -3.60146 113.80121 31784 ft 475 kts 202°
2026-04-26 08:31 -3.66205 113.77395 31786 ft 473 kts 202°
2026-04-26 08:32 -3.72220 113.74687 31781 ft 472 kts 202°
2026-04-26 08:32 -3.78230 113.71995 31781 ft 472 kts 201°
2026-04-26 08:33 -3.84380 113.69548 31781 ft 472 kts 198°
2026-04-26 08:33 -3.90560 113.67276 31780 ft 472 kts 198°
2026-04-26 08:34 -3.96766 113.64996 31781 ft 472 kts 198°
2026-04-26 08:34 -4.02930 113.62701 31782 ft 473 kts 198°
2026-04-26 08:35 -4.09128 113.60372 31787 ft 473 kts 198°
2026-04-26 08:35 -4.15293 113.58045 31792 ft 473 kts 198°
2026-04-26 08:36 -4.21434 113.55721 31796 ft 473 kts 198°
2026-04-26 08:36 -4.27620 113.53378 31800 ft 472 kts 198°
2026-04-26 08:37 -4.33768 113.51051 31802 ft 473 kts 198°
2026-04-26 08:37 -4.39978 113.48699 31802 ft 473 kts 198°
2026-04-26 08:38 -4.46150 113.46362 31802 ft 473 kts 198°
2026-04-26 08:38 -4.52297 113.44034 31802 ft 474 kts 198°
2026-04-26 08:39 -4.58506 113.41681 31802 ft 473 kts 198°
2026-04-26 08:39 -4.64646 113.39354 31802 ft 473 kts 198°
2026-04-26 08:40 -4.70817 113.37015 31801 ft 472 kts 198°
2026-04-26 08:40 -4.76963 113.34685 31800 ft 472 kts 198°
2026-04-26 08:41 -4.83129 113.32347 31800 ft 473 kts 198°
2026-04-26 08:41 -4.89316 113.30001 31801 ft 473 kts 198°
2026-04-26 08:42 -4.95497 113.27657 31801 ft 473 kts 198°
2026-04-26 08:42 -5.01654 113.25321 31801 ft 473 kts 198°
2026-04-26 08:43 -5.07830 113.22977 31802 ft 473 kts 198°
2026-04-26 08:43 -5.13975 113.20644 31802 ft 472 kts 198°
2026-04-26 08:44 -5.20118 113.18312 31801 ft 472 kts 198°
2026-04-26 08:44 -5.26324 113.15955 31801 ft 472 kts 198°
2026-04-26 08:45 -5.32467 113.13622 31802 ft 473 kts 199°
2026-04-26 08:45 -5.38634 113.11279 31801 ft 472 kts 199°
2026-04-26 08:46 -5.44771 113.08947 31801 ft 472 kts 199°
2026-04-26 08:46 -5.50962 113.06594 31801 ft 471 kts 198°
2026-04-26 08:47 -5.57083 113.04269 31801 ft 471 kts 199°
2026-04-26 08:47 -5.63247 113.01925 31801 ft 471 kts 199°
2026-04-26 08:48 -5.69404 112.99583 31806 ft 472 kts 199°
2026-04-26 08:48 -5.75549 112.97246 31813 ft 472 kts 199°
2026-04-26 08:49 -5.81735 112.94893 31818 ft 472 kts 199°
2026-04-26 08:49 -5.87949 112.92699 31808 ft 469 kts 194°
2026-04-26 08:50 -5.91122 112.91923 31590 ft 470 kts 189°
2026-04-26 08:50 -5.94366 112.91328 31333 ft 469 kts 187°
2026-04-26 08:50 -5.97560 112.90842 31081 ft 467 kts 186°
2026-04-26 08:50 -6.00806 112.90389 30625 ft 466 kts 185°
2026-04-26 08:51 -6.07286 112.89499 29066 ft 468 kts 186°
2026-04-26 08:51 -6.10476 112.89047 28454 ft 465 kts 186°
2026-04-26 08:51 -6.13674 112.88582 27822 ft 456 kts 186°
2026-04-26 08:52 -6.16823 112.88115 27184 ft 448 kts 186°
2026-04-26 08:52 -6.19870 112.87656 26558 ft 440 kts 186°
2026-04-26 08:52 -6.22884 112.87199 25928 ft 432 kts 186°
2026-04-26 08:52 -6.25833 112.86750 25310 ft 425 kts 186°
2026-04-26 08:53 -6.28703 112.86312 24704 ft 418 kts 186°
2026-04-26 08:53 -6.31562 112.85875 24102 ft 411 kts 186°
2026-04-26 08:53 -6.34375 112.85445 23515 ft 407 kts 186°
2026-04-26 08:53 -6.37170 112.85017 22918 ft 406 kts 186°
2026-04-26 08:54 -6.39999 112.84586 22309 ft 406 kts 186°
2026-04-26 08:54 -6.42780 112.84161 21725 ft 405 kts 186°
2026-04-26 08:54 -6.45589 112.83732 21118 ft 405 kts 186°
2026-04-26 08:54 -6.48351 112.83308 20515 ft 400 kts 186°
2026-04-26 08:55 -6.51067 112.82891 19942 ft 392 kts 186°
2026-04-26 08:55 -6.53747 112.82479 19624 ft 383 kts 186°
2026-04-26 08:55 -6.56363 112.82076 19388 ft 373 kts 186°
2026-04-26 08:55 -6.58923 112.81677 19153 ft 367 kts 187°
2026-04-26 08:56 -6.61423 112.81145 18916 ft 369 kts 193°
2026-04-26 08:56 -6.63824 112.80216 18680 ft 373 kts 205°
2026-04-26 08:56 -6.66026 112.78799 18444 ft 374 kts 216°
2026-04-26 08:56 -6.67970 112.77035 18145 ft 375 kts 224°
2026-04-26 08:57 -6.69683 112.75052 17733 ft 375 kts 230°
2026-04-26 08:57 -6.71389 112.73124 17310 ft 369 kts 222°
2026-04-26 08:57 -6.73313 112.71408 16873 ft 365 kts 217°
2026-04-26 08:57 -6.75277 112.69823 16527 ft 359 kts 216°
2026-04-26 08:58 -6.77209 112.68266 16410 ft 347 kts 217°
2026-04-26 08:58 -6.79031 112.66738 16294 ft 334 kts 218°
2026-04-26 08:58 -6.80740 112.65247 16153 ft 319 kts 219°
2026-04-26 08:58 -6.82365 112.63794 16036 ft 306 kts 219°
2026-04-26 08:59 -6.83938 112.62371 15928 ft 297 kts 219°
2026-04-26 08:59 -6.85483 112.60973 15588 ft 300 kts 219°
2026-04-26 08:59 -6.87036 112.59573 15127 ft 304 kts 219°
2026-04-26 08:59 -6.88610 112.58155 14656 ft 306 kts 219°
2026-04-26 09:00 -6.90197 112.56722 14190 ft 305 kts 220°
2026-04-26 09:00 -6.91778 112.55295 13720 ft 304 kts 220°
2026-04-26 09:00 -6.93357 112.53869 13243 ft 303 kts 220°
2026-04-26 09:00 -6.94922 112.52455 12781 ft 301 kts 220°
2026-04-26 09:01 -6.96518 112.51074 12306 ft 299 kts 215°
2026-04-26 09:01 -6.98314 112.50066 11830 ft 293 kts 194°
2026-04-26 09:01 -7.00297 112.49883 11363 ft 287 kts 173°
2026-04-26 09:01 -7.02285 112.50135 10891 ft 285 kts 169°
2026-04-26 09:02 -7.04228 112.50431 10441 ft 283 kts 169°
2026-04-26 09:02 -7.06192 112.50704 10083 ft 278 kts 171°
2026-04-26 09:02 -7.08106 112.50939 9719 ft 275 kts 172°
2026-04-26 09:02 -7.09996 112.51155 9364 ft 271 kts 172°
2026-04-26 09:03 -7.11857 112.51363 9009 ft 267 kts 172°
2026-04-26 09:03 -7.13720 112.51573 8658 ft 267 kts 172°
2026-04-26 09:03 -7.15572 112.51782 8303 ft 264 kts 172°
2026-04-26 09:03 -7.17399 112.51990 7947 ft 262 kts 172°
2026-04-26 09:04 -7.19215 112.52000 7582 ft 260 kts 184°
2026-04-26 09:04 -7.21009 112.51794 7225 ft 258 kts 186°
2026-04-26 09:04 -7.22806 112.51571 6862 ft 254 kts 186°
2026-04-26 09:04 -7.24545 112.51361 6505 ft 249 kts 185°
2026-04-26 09:05 -7.26248 112.51158 6154 ft 244 kts 186°
2026-04-26 09:05 -7.27952 112.50957 5792 ft 240 kts 186°
2026-04-26 09:05 -7.29616 112.50822 5428 ft 236 kts 174°
2026-04-26 09:05 -7.31100 112.51375 5079 ft 230 kts 143°
2026-04-26 09:06 -7.32317 112.52411 4779 ft 224 kts 136°
2026-04-26 09:06 -7.33374 112.53507 4681 ft 211 kts 126°
2026-04-26 09:06 -7.34013 112.54805 4328 ft 210 kts 104°
2026-04-26 09:06 -7.34294 112.56245 4027 ft 207 kts 98°
2026-04-26 09:07 -7.34533 112.57667 3754 ft 204 kts 99°
2026-04-26 09:07 -7.34774 112.59063 3483 ft 201 kts 99°
2026-04-26 09:07 -7.35001 112.60453 3205 ft 197 kts 98°
2026-04-26 09:07 -7.35216 112.61790 2958 ft 191 kts 98°
2026-04-26 09:08 -7.35428 112.63068 2738 ft 182 kts 98°
2026-04-26 09:08 -7.35630 112.64294 2488 ft 169 kts 98°
2026-04-26 09:08 -7.35811 112.65421 2245 ft 156 kts 97°
2026-04-26 09:08 -7.35985 112.66460 2060 ft 146 kts 98°
2026-04-26 09:09 -7.36148 112.67463 1885 ft 145 kts 97°
2026-04-26 09:09 -7.36308 112.68467 1695 ft 144 kts 97°
2026-04-26 09:09 -7.36478 112.69477 1507 ft 145 kts 97°
2026-04-26 09:09 -7.36637 112.70468 1323 ft 143 kts 97°
2026-04-26 09:10 -7.36798 112.71462 1131 ft 141 kts 96°
2026-04-26 09:10 -7.36965 112.72438 955 ft 143 kts 97°
2026-04-26 09:10 -7.37118 112.73422 772 ft 141 kts 96°
2026-04-26 09:10 -7.37280 112.74401 597 ft 141 kts 97°
2026-04-26 09:11 -7.37449 112.75377 393 ft 140 kts 97°
2026-04-26 09:11 -7.37611 112.76336 243 ft 140 kts 95°
2026-04-26 09:11 -7.37769 112.77309 82 ft 138 kts 95°
2026-04-26 09:11 -7.37912 112.78253 11 ft 130 kts 96°
2026-04-26 09:12 -7.38024 112.78934 10 ft 65 kts 98°
2026-04-26 09:12 -7.38079 112.79279 8 ft 44 kts 99°
2026-04-26 09:12 -7.38102 112.79591 10 ft 38 kts 78°
2026-04-26 09:12 -7.38053 112.79725 9 ft 3 kts 68°
2026-04-26 09:13 -7.38044 112.79742 9 ft 2 kts 56°
2026-04-26 09:13 -7.38035 112.79752 9 ft 1 kts 46°
2026-04-26 09:13 -7.38027 112.79759 10 ft 1 kts 35°
2026-04-26 09:13 -7.38001 112.79771 10 ft 8 kts 14°
2026-04-26 09:14 -7.37901 112.79787 9 ft 17 kts
2026-04-26 09:14 -7.37777 112.79808 8 ft 17 kts
2026-04-26 09:14 -7.37722 112.79720 8 ft 15 kts 279°
2026-04-26 09:14 -7.37705 112.79615 8 ft 15 kts 279°
2026-04-26 09:15 -7.37683 112.79485 8 ft 22 kts 279°
2026-04-26 09:15 -7.37656 112.79321 8 ft 21 kts 279°
2026-04-26 09:15 -7.37645 112.79253 8 ft 3 kts 279°
2026-04-26 09:15 -7.37618 112.79228 8 ft 8 kts
2026-04-26 09:16 -7.37570 112.79234 8 ft 4 kts
2026-04-26 09:16 -7.37555 112.79237 8 ft 0 kts